Time,TemperatureF,DewpointF,PressureIn,WindDirection,WindDirectionDegrees,WindSpeedMPH,WindSpeedGustMPH,Humidity,HourlyPrecipIn,Conditions,Clouds,dailyrainin,SoftwareType,DateUTC
2013-06-28 00:07:00,75.5,71.0,29.88,West,267,2.0,-999.0,85,-99.99,,,0.00,weatherlink.com 1.10,2013-06-28 05:07:00,
2013-06-28 00:22:00,75.6,71.0,29.88,West,267,1.0,-999.0,85,-99.99,,,0.00,weatherlink.com 1.10,2013-06-28 05:22:00,
2013-06-28 00:37:00,75.8,71.0,29.89,West,267,3.0,-999.0,84,-99.99,,,0.00,weatherlink.com 1.10,2013-06-28 05:37:00,
2013-06-28 00:52:00,76.1,71.0,29.88,WSW,252,0.0,-999.0,84,-99.99,,,0.00,weatherlink.com 1.10,2013-06-28 05:52:00,
2013-06-28 01:07:00,75.3,71.0,29.88,WSW,252,2.0,-999.0,85,-99.99,,,0.00,weatherlink.com 1.10,2013-06-28 06:07:00,
2013-06-28 01:22:00,74.5,70.0,29.89,WSW,252,2.0,-999.0,86,-99.99,,,0.00,weatherlink.com 1.10,2013-06-28 06:22:00,
2013-06-28 01:38:00,74.0,70.0,29.90,WSW,252,0.0,-999.0,88,-99.99,,,0.00,weatherlink.com 1.10,2013-06-28 06:38:00,
2013-06-28 01:53:00,75.3,71.0,29.90,West,274,0.0,-999.0,86,-99.99,,,0.00,weatherlink.com 1.10,2013-06-28 06:53:00,
2013-06-28 02:08:00,74.6,70.0,29.89,West,274,0.0,-999.0,86,-99.99,,,0.00,weatherlink.com 1.10,2013-06-28 07:08:00,
2013-06-28 02:23:00,73.9,70.0,29.88,West,273,0.0,-999.0,88,-99.99,,,0.00,weatherlink.com 1.10,2013-06-28 07:23:00,
2013-06-28 02:38:00,73.2,70.0,29.86,South,188,5.0,-999.0,88,-99.99,,,0.00,weatherlink.com 1.10,2013-06-28 07:38:00,
2013-06-28 03:08:00,73.1,69.0,29.87,SSW,197,2.0,-999.0,88,-99.99,,,0.00,weatherlink.com 1.10,2013-06-28 08:08:00,
2013-06-28 03:23:00,73.5,70.0,29.87,WSW,240,4.0,-999.0,88,-99.99,,,0.00,weatherlink.com 1.10,2013-06-28 08:23:00,
2013-06-28 03:38:00,73.9,70.0,29.87,WSW,250,0.0,-999.0,88,-99.99,,,0.00,weatherlink.com 1.10,2013-06-28 08:38:00,
2013-06-28 03:53:00,73.9,70.0,29.87,WSW,254,0.0,-999.0,88,-99.99,,,0.00,weatherlink.com 1.10,2013-06-28 08:53:00,
2013-06-28 04:08:00,73.7,70.0,29.86,WSW,254,0.0,-999.0,88,-99.99,,,0.00,weatherlink.com 1.10,2013-06-28 09:08:00,
2013-06-28 04:23:00,73.4,70.0,29.86,WSW,253,0.0,-999.0,88,-99.99,,,0.00,weatherlink.com 1.10,2013-06-28 09:23:00,
2013-06-28 04:38:00,73.3,70.0,29.86,WSW,254,1.0,-999.0,88,-99.99,,,0.00,weatherlink.com 1.10,2013-06-28 09:38:00,
2013-06-28 04:53:00,73.1,69.0,29.87,WSW,254,2.0,-999.0,88,-99.99,,,0.00,weatherlink.com 1.10,2013-06-28 09:53:00,
2013-06-28 05:08:00,72.8,69.0,29.87,WSW,254,2.0,-999.0,88,-99.99,,,0.00,weatherlink.com 1.10,2013-06-28 10:08:00,
2013-06-28 05:23:00,72.8,69.0,29.87,WSW,254,0.0,-999.0,87,-99.99,,,0.00,weatherlink.com 1.10,2013-06-28 10:23:00,
2013-06-28 05:38:00,72.8,69.0,29.87,WSW,252,2.0,-999.0,87,-99.99,,,0.00,weatherlink.com 1.10,2013-06-28 10:38:00,
2013-06-28 05:53:00,73.0,69.0,29.88,WSW,252,0.0,-999.0,87,-99.99,,,0.00,weatherlink.com 1.10,2013-06-28 10:53:00,
2013-06-28 06:08:00,73.2,69.0,29.88,WSW,252,1.0,-999.0,87,-99.99,,,0.00,weatherlink.com 1.10,2013-06-28 11:08:00,
2013-06-28 06:23:00,73.3,69.0,29.88,WSW,252,2.0,-999.0,87,-99.99,,,0.00,weatherlink.com 1.10,2013-06-28 11:23:00,
2013-06-28 06:38:00,73.5,69.0,29.89,WSW,241,1.0,-999.0,86,-99.99,,,0.00,weatherlink.com 1.10,2013-06-28 11:38:00,
2013-06-28 06:53:00,74.0,70.0,29.89,SW,229,1.0,-999.0,86,-99.99,,,0.00,weatherlink.com 1.10,2013-06-28 11:53:00,
2013-06-28 07:08:00,74.6,70.0,29.89,SW,225,2.0,-999.0,86,-99.99,,,0.00,weatherlink.com 1.10,2013-06-28 12:08:00,
2013-06-28 07:23:00,75.4,71.0,29.88,SW,231,4.0,-999.0,87,-99.99,,,0.00,weatherlink.com 1.10,2013-06-28 12:23:00,
2013-06-28 07:38:00,76.4,73.0,29.89,WSW,246,1.0,-999.0,88,-99.99,,,0.00,weatherlink.com 1.10,2013-06-28 12:38:00,
2013-06-28 07:53:00,77.4,74.0,29.88,SW,234,4.0,-999.0,88,-99.99,,,0.00,weatherlink.com 1.10,2013-06-28 12:53:00,
2013-06-28 08:08:00,78.2,74.0,29.88,WSW,242,2.0,-999.0,87,-99.99,,,0.00,weatherlink.com 1.10,2013-06-28 13:08:00,
2013-06-28 08:23:00,78.5,74.0,29.87,WSW,238,4.0,-999.0,87,-99.99,,,0.00,weatherlink.com 1.10,2013-06-28 13:23:00,
2013-06-28 08:38:00,79.0,74.0,29.86,WSW,249,5.0,-999.0,85,-99.99,,,0.00,weatherlink.com 1.10,2013-06-28 13:38:00,
2013-06-28 08:53:00,79.9,75.0,29.85,SW,219,4.0,-999.0,84,-99.99,,,0.00,weatherlink.com 1.10,2013-06-28 13:53:00,
2013-06-28 09:08:00,80.7,74.0,29.85,WSW,257,4.0,-999.0,80,-99.99,,,0.00,weatherlink.com 1.10,2013-06-28 14:08:00,
2013-06-28 09:23:00,81.5,74.0,29.85,WSW,246,4.0,-999.0,79,-99.99,,,0.00,weatherlink.com 1.10,2013-06-28 14:23:00,
2013-06-28 09:38:00,82.5,74.0,29.86,SW,229,6.0,-999.0,76,-99.99,,,0.00,weatherlink.com 1.10,2013-06-28 14:38:00,
2013-06-28 09:53:00,82.5,73.0,29.86,WNW,284,5.0,-999.0,74,-99.99,,,0.00,weatherlink.com 1.10,2013-06-28 14:53:00,
2013-06-28 10:08:00,82.1,73.0,29.85,WNW,286,1.0,-999.0,74,-99.99,,,0.00,weatherlink.com 1.10,2013-06-28 15:08:00,
2013-06-28 10:23:00,82.9,74.0,29.86,NW,306,1.0,-999.0,74,-99.99,,,0.00,weatherlink.com 1.10,2013-06-28 15:23:00,
2013-06-28 10:38:00,83.3,72.0,29.87,NW,306,3.0,-999.0,68,-99.99,,,0.00,weatherlink.com 1.10,2013-06-28 15:38:00,
2013-06-28 10:53:00,82.3,71.0,29.87,WNW,290,8.0,-999.0,69,-99.99,,,0.00,weatherlink.com 1.10,2013-06-28 15:53:00,
2013-06-28 11:08:00,82.1,72.0,29.87,NW,304,4.0,-999.0,71,-99.99,,,0.00,weatherlink.com 1.10,2013-06-28 16:08:00,
2013-06-28 11:23:00,82.5,72.0,29.87,WSW,238,2.0,-999.0,71,-99.99,,,0.00,weatherlink.com 1.10,2013-06-28 16:23:00,
2013-06-28 11:38:00,82.8,73.0,29.86,WNW,289,3.0,-999.0,71,-99.99,,,0.00,weatherlink.com 1.10,2013-06-28 16:38:00,
2013-06-28 11:53:00,83.3,73.0,29.85,WNW,288,5.0,-999.0,71,-99.99,,,0.00,weatherlink.com 1.10,2013-06-28 16:53:00,
2013-06-28 12:08:00,83.1,72.0,29.83,NW,313,11.0,-999.0,69,-99.99,,,0.00,weatherlink.com 1.10,2013-06-28 17:08:00,
2013-06-28 12:23:00,83.2,71.0,29.81,WNW,291,7.0,-999.0,66,-99.99,,,0.00,weatherlink.com 1.10,2013-06-28 17:23:00,
2013-06-28 12:38:00,83.8,70.0,29.81,West,259,5.0,-999.0,63,-99.99,,,0.00,weatherlink.com 1.10,2013-06-28 17:38:00,
2013-06-28 12:53:00,83.6,71.0,29.82,NW,317,5.0,-999.0,65,-99.99,,,0.00,weatherlink.com 1.10,2013-06-28 17:53:00,
2013-06-28 13:08:00,83.0,71.0,29.81,WSW,249,3.0,-999.0,68,-99.99,,,0.00,weatherlink.com 1.10,2013-06-28 18:08:00,
2013-06-28 13:23:00,82.8,69.0,29.81,WNW,298,3.0,-999.0,63,-99.99,,,0.00,weatherlink.com 1.10,2013-06-28 18:23:00,
2013-06-28 13:38:00,83.7,69.0,29.79,WSW,257,4.0,-999.0,61,-99.99,,,0.00,weatherlink.com 1.10,2013-06-28 18:38:00,
2013-06-28 13:53:00,84.3,68.0,29.79,WSW,254,10.0,-999.0,58,-99.99,,,0.00,weatherlink.com 1.10,2013-06-28 18:53:00,
2013-06-28 14:08:00,85.3,70.0,29.78,WNW,300,12.0,-999.0,60,-99.99,,,0.00,weatherlink.com 1.10,2013-06-28 19:08:00,
2013-06-28 14:23:00,84.9,68.0,29.78,WSW,238,3.0,-999.0,58,-99.99,,,0.00,weatherlink.com 1.10,2013-06-28 19:23:00,
2013-06-28 14:38:00,84.6,68.0,29.78,WNW,282,6.0,-999.0,57,-99.99,,,0.00,weatherlink.com 1.10,2013-06-28 19:38:00,
2013-06-28 14:53:00,84.3,69.0,29.78,WSW,243,4.0,-999.0,60,-99.99,,,0.00,weatherlink.com 1.10,2013-06-28 19:53:00,
2013-06-28 15:08:00,84.4,69.0,29.76,WSW,243,5.0,-999.0,60,-99.99,,,0.00,weatherlink.com 1.10,2013-06-28 20:08:00,
2013-06-28 15:23:00,84.2,69.0,29.75,WNW,285,5.0,-999.0,60,-99.99,,,0.00,weatherlink.com 1.10,2013-06-28 20:23:00,
2013-06-28 15:38:00,84.7,69.0,29.76,WNW,297,13.0,-999.0,60,-99.99,,,0.00,weatherlink.com 1.10,2013-06-28 20:38:00,
2013-06-28 15:53:00,83.9,69.0,29.76,WNW,295,8.0,-999.0,61,-99.99,,,0.00,weatherlink.com 1.10,2013-06-28 20:53:00,
2013-06-28 16:08:00,84.5,69.0,29.75,West,273,13.0,-999.0,59,-99.99,,,0.00,weatherlink.com 1.10,2013-06-28 21:08:00,
2013-06-28 16:23:00,84.5,69.0,29.75,WNW,294,12.0,-999.0,60,-99.99,,,0.00,weatherlink.com 1.10,2013-06-28 21:23:00,
2013-06-28 16:38:00,84.5,70.0,29.75,WNW,302,1.0,-999.0,61,-99.99,,,0.00,weatherlink.com 1.10,2013-06-28 21:38:00,
2013-06-28 16:53:00,84.4,69.0,29.74,SW,228,8.0,-999.0,60,-99.99,,,0.00,weatherlink.com 1.10,2013-06-28 21:53:00,
2013-06-28 17:08:00,84.3,69.0,29.74,WSW,254,7.0,-999.0,60,-99.99,,,0.00,weatherlink.com 1.10,2013-06-28 22:08:00,
2013-06-28 17:23:00,83.9,69.0,29.74,NW,304,5.0,-999.0,62,-99.99,,,0.00,weatherlink.com 1.10,2013-06-28 22:23:00,
2013-06-28 17:38:00,83.3,69.0,29.73,WNW,296,2.0,-999.0,63,-99.99,,,0.00,weatherlink.com 1.10,2013-06-28 22:38:00,
2013-06-28 17:54:00,82.5,70.0,29.73,West,262,2.0,-999.0,66,-99.99,,,0.00,weatherlink.com 1.10,2013-06-28 22:54:00,
2013-06-28 18:09:00,83.2,70.0,29.73,SW,223,5.0,-999.0,65,-99.99,,,0.00,weatherlink.com 1.10,2013-06-28 23:09:00,
2013-06-28 18:24:00,83.2,71.0,29.73,West,270,5.0,-999.0,66,-99.99,,,0.00,weatherlink.com 1.10,2013-06-28 23:24:00,
2013-06-28 18:39:00,82.4,70.0,29.73,WNW,282,2.0,-999.0,66,-99.99,,,0.00,weatherlink.com 1.10,2013-06-28 23:39:00,
2013-06-28 18:54:00,82.0,70.0,29.74,WSW,246,0.0,-999.0,68,-99.99,,,0.00,weatherlink.com 1.10,2013-06-28 23:54:00,
2013-06-28 19:09:00,80.6,71.0,29.74,WSW,248,2.0,-999.0,72,-99.99,,,0.00,weatherlink.com 1.10,2013-06-29 00:09:00,
2013-06-28 19:24:00,80.5,71.0,29.75,West,265,3.0,-999.0,72,-99.99,,,0.00,weatherlink.com 1.10,2013-06-29 00:24:00,
2013-06-28 19:39:00,80.1,70.0,29.75,WSW,250,2.0,-999.0,72,-99.99,,,0.00,weatherlink.com 1.10,2013-06-29 00:39:00,
2013-06-28 19:54:00,79.5,71.0,29.76,WSW,250,0.0,-999.0,74,-99.99,,,0.00,weatherlink.com 1.10,2013-06-29 00:54:00,
2013-06-28 20:09:00,78.7,70.0,29.75,WSW,246,1.0,-999.0,75,-99.99,,,0.00,weatherlink.com 1.10,2013-06-29 01:09:00,
2013-06-28 20:24:00,78.0,70.0,29.76,WSW,244,2.0,-999.0,76,-99.99,,,0.00,weatherlink.com 1.10,2013-06-29 01:24:00,
2013-06-28 20:39:00,77.3,70.0,29.76,WSW,241,3.0,-999.0,77,-99.99,,,0.00,weatherlink.com 1.10,2013-06-29 01:39:00,
2013-06-28 20:54:00,76.9,70.0,29.76,WSW,241,1.0,-999.0,78,-99.99,,,0.00,weatherlink.com 1.10,2013-06-29 01:54:00,
2013-06-28 21:09:00,76.4,69.0,29.76,WSW,242,0.0,-999.0,79,-99.99,,,0.00,weatherlink.com 1.10,2013-06-29 02:09:00,
2013-06-28 21:24:00,76.0,70.0,29.77,WSW,244,2.0,-999.0,81,-99.99,,,0.00,weatherlink.com 1.10,2013-06-29 02:24:00,
2013-06-28 21:39:00,75.4,70.0,29.78,WSW,245,5.0,-999.0,82,-99.99,,,0.00,weatherlink.com 1.10,2013-06-29 02:39:00,
2013-06-28 21:54:00,75.1,70.0,29.78,WSW,258,0.0,-999.0,83,-99.99,,,0.00,weatherlink.com 1.10,2013-06-29 02:54:00,
2013-06-28 22:09:00,75.1,70.0,29.78,West,259,1.0,-999.0,84,-99.99,,,0.00,weatherlink.com 1.10,2013-06-29 03:09:00,
2013-06-28 22:24:00,74.9,70.0,29.78,WSW,250,3.0,-999.0,84,-99.99,,,0.00,weatherlink.com 1.10,2013-06-29 03:24:00,
2013-06-28 22:39:00,74.8,70.0,29.78,SW,235,3.0,-999.0,85,-99.99,,,0.00,weatherlink.com 1.10,2013-06-29 03:39:00,
2013-06-28 22:54:00,74.6,70.0,29.77,WSW,238,4.0,-999.0,85,-99.99,,,0.00,weatherlink.com 1.10,2013-06-29 03:54:00,
2013-06-28 23:09:00,74.4,70.0,29.77,WSW,238,3.0,-999.0,86,-99.99,,,0.00,weatherlink.com 1.10,2013-06-29 04:09:00,
2013-06-28 23:24:00,74.1,70.0,29.76,WSW,238,0.0,-999.0,87,-99.99,,,0.00,weatherlink.com 1.10,2013-06-29 04:24:00,
2013-06-28 23:39:00,73.9,70.0,29.75,WSW,238,1.0,-999.0,87,-99.99,,,0.00,weatherlink.com 1.10,2013-06-29 04:39:00,
2013-06-28 23:54:00,73.9,70.0,29.75,WSW,238,0.0,-999.0,87,-99.99,,,0.00,weatherlink.com 1.10,2013-06-29 04:54:00,